Weather History for Milton, FL

Change the Weather History Date:

Monday, October 15, 2012

  Actual Average (KNSE) Record (KNSE)
Temperature  
Mean Temperature 73 °F -  
Max Temperature 84 °F 76 °F 90 °F (2011)
Min Temperature 60 °F 56 °F 46 °F (2004)
Cooling Degree Days 8    
Growing Degree Days 23 (Base 50)    
Moisture  
Dew Point 65 °F    
Average Humidity 85    
Maximum Humidity 100    
Minimum Humidity 41    
Precipitation  
Precipitation 0.00 in - - ()
Sea Level Pressure  
Sea Level Pressure 29.96 in    
Wind  
Wind Speed 2 mph (NNW)    
Max Wind Speed 15 mph    
Max Gust Speed 20 mph    
Visibility 5 miles    
Events      
Averages and records for this station are not official NWS values.
T = Trace of Precipitation, MM = Missing Value Source: NWS Daily Summary

Daily Weather History Graph

Daily Weather History Graph

Search for Another Location

Airport:

Trip Planner

Search our weather history database for the weather conditions in past years. The results will help you decide how hot, cold, wet, or windy it might be!

Date:

Astronomy

Oct. 15, 2012 Rise Set
Actual Time 6:50 AM CDT 6:16 PM CDT
Civil Twilight 6:26 AM CDT 6:40 PM CDT
Nautical Twilight 5:58 AM CDT 7:08 PM CDT
Astronomical Twilight 5:30 AM CDT 7:36 PM CDT
Moon 6:56 AM CDT (10/15) 6:21 PM CDT (10/15)
Length of Visible Light 12h 13m
Length of Day
11h 25m
New Moon, 0% of the Moon is Illuminated
Oct 15
New Moon
Oct 21
First Quarter
Oct 29
Full
Nov 6
Last Quarter
Nov 13
New

Hourly Weather History & Observations

Time (CDT) Temp. Heat Index Dew Point Humidity Pressure Visibility Wind Dir Wind Speed Gust Speed Precip Events Conditions
12:05 AM 64.4 °F - 64.4 °F 100% 30.02 in 1.0 mi Calm Calm - N/A   Mist
12:12 AM 68.0 °F - 66.2 °F 94% 30.01 in 0.8 mi Calm Calm - N/A   Mist
12:16 AM 68.0 °F - 66.2 °F 94% 30.01 in 1.2 mi Calm Calm - N/A   Scattered Clouds
12:26 AM 69.8 °F - 68.0 °F 94% 30.01 in 3.0 mi South 3.5 mph - N/A   Partly Cloudy
12:34 AM 68.0 °F - 66.2 °F 94% 30.00 in 1.5 mi Calm Calm - N/A   Partly Cloudy
12:37 AM 69.8 °F - 68.0 °F 94% 30.00 in 0.8 mi Calm Calm - N/A   Mist
12:53 AM 69.8 °F - 68.0 °F 94% 30.00 in 1.2 mi Calm Calm - N/A   Scattered Clouds
12:56 AM 70.0 °F - 68.0 °F 93% 29.96 in 2.5 mi Calm Calm - N/A   Partly Cloudy
1:04 AM 69.8 °F - 68.0 °F 94% 30.00 in 1.0 mi Calm Calm - N/A   Mist
1:10 AM 69.8 °F - 68.0 °F 94% 30.00 in 0.8 mi Calm Calm - N/A   Mist
1:33 AM 69.8 °F - 68.0 °F 94% 29.99 in 1.2 mi Calm Calm - N/A   Scattered Clouds
1:41 AM 69.8 °F - 66.2 °F 88% 29.99 in 0.8 mi Calm Calm - N/A   Mist
1:56 AM 64.9 °F - 63.0 °F 93% 29.95 in 1.0 mi Calm Calm - N/A   Mist
2:05 AM 66.2 °F - 64.4 °F 94% 29.98 in 0.8 mi Calm Calm - N/A   Mist
2:13 AM 64.4 °F - 64.4 °F 100% 29.98 in 1.2 mi Calm Calm - N/A   Overcast
2:23 AM 62.6 °F - 62.6 °F 100% 29.99 in 0.8 mi Calm Calm - N/A   Mist
2:38 AM 64.4 °F - 62.6 °F 94% 29.99 in 1.0 mi Calm Calm - N/A   Mist
2:51 AM 68.0 °F - 66.2 °F 94% 29.98 in 1.2 mi Calm Calm - N/A   Partly Cloudy
2:56 AM 68.0 °F - 66.9 °F 96% 29.94 in 1.0 mi Calm Calm - N/A   Mist
3:00 AM 66.2 °F - 66.2 °F 100% 29.98 in 0.8 mi Calm Calm - N/A   Mist
3:04 AM 66.2 °F - 64.4 °F 94% 29.98 in 1.2 mi Calm Calm - N/A   Partly Cloudy
3:14 AM 66.2 °F - 64.4 °F 94% 29.98 in 0.8 mi Calm Calm - N/A   Mist
3:27 AM 66.2 °F - 64.4 °F 94% 29.97 in 1.2 mi Calm Calm - N/A   Partly Cloudy
3:37 AM 64.4 °F - 62.6 °F 94% 29.97 in 1.0 mi Calm Calm - N/A   Mist
3:47 AM 66.2 °F - 64.4 °F 94% 29.97 in 2.0 mi Calm Calm - N/A   Scattered Clouds
3:56 AM 68.0 °F - 66.0 °F 93% 29.92 in 6.0 mi Calm Calm - N/A   Partly Cloudy
4:48 AM 66.2 °F - 64.4 °F 94% 29.96 in 1.8 mi Calm Calm - N/A   Partly Cloudy
4:56 AM 64.0 °F - 63.0 °F 96% 29.93 in 2.0 mi Calm Calm - N/A   Partly Cloudy
5:03 AM 62.6 °F - 62.6 °F 100% 29.97 in 6.0 mi Calm Calm - N/A   Partly Cloudy
5:08 AM 64.4 °F - 62.6 °F 94% 29.96 in 1.8 mi Calm Calm - N/A   Scattered Clouds
5:49 AM 64.4 °F - 62.6 °F 94% 29.97 in 3.0 mi Calm Calm - N/A   Scattered Clouds
5:56 AM 66.0 °F - 64.0 °F 93% 29.93 in 3.0 mi Calm Calm - N/A   Partly Cloudy
6:56 AM 68.0 °F - 66.0 °F 93% 29.92 in 6.0 mi South 6.9 mph - N/A   Scattered Clouds
7:09 AM 69.8 °F - 68.0 °F 94% 29.98 in 6.0 mi Calm Calm - N/A   Partly Cloudy
7:59 AM 71.6 °F - 69.8 °F 94% 29.98 in 9.0 mi NW 3.5 mph - N/A   Mostly Cloudy
8:07 AM 71.6 °F - 69.8 °F 94% 29.99 in 10.0 mi Calm Calm - N/A   Overcast
8:24 AM 71.6 °F - 69.8 °F 94% 29.99 in 9.0 mi Calm Calm - N/A   Overcast
8:32 AM 71.6 °F - 69.8 °F 94% 29.99 in 10.0 mi Calm Calm - N/A   Mostly Cloudy
8:56 AM 72.0 °F - 71.1 °F 97% 29.95 in 10.0 mi Calm Calm - N/A   Mostly Cloudy
9:06 AM 73.4 °F - 71.6 °F 94% 29.99 in 10.0 mi Calm Calm - N/A   Mostly Cloudy
9:56 AM 75.9 °F - 70.0 °F 82% 29.94 in 10.0 mi Variable 3.5 mph - N/A   Mostly Cloudy
10:03 AM 75.2 °F - 69.8 °F 83% 29.99 in 10.0 mi WNW 5.8 mph - N/A   Overcast
10:26 AM 78.8 °F - 69.8 °F 74% 29.99 in 10.0 mi NW 6.9 mph - N/A   Mostly Cloudy
10:56 AM 80.1 °F 82.7 °F 68.0 °F 67% 29.94 in 10.0 mi NW 9.2 mph - N/A   Mostly Cloudy
11:05 AM 80.6 °F 83.2 °F 68.0 °F 65% 29.98 in 10.0 mi Variable 6.9 mph - N/A   Scattered Clouds
11:56 AM 82.9 °F 85.4 °F 66.9 °F 58% 29.92 in 10.0 mi NNW 8.1 mph - N/A   Partly Cloudy
12:56 PM 82.0 °F 83.0 °F 62.1 °F 51% 29.89 in 10.0 mi NW 8.1 mph 19.6 mph N/A   Partly Cloudy
1:56 PM 82.9 °F 83.7 °F 62.1 °F 49% 29.87 in 10.0 mi NNW 11.5 mph - N/A   Partly Cloudy
2:56 PM 84.0 °F 84.4 °F 61.0 °F 46% 29.86 in 10.0 mi NNW 9.2 mph - N/A   Clear
3:56 PM 84.0 °F 83.8 °F 59.0 °F 43% 29.84 in 10.0 mi North 15.0 mph - N/A   Clear
4:56 PM 82.0 °F 81.6 °F 55.9 °F 41% 29.84 in 10.0 mi North 11.5 mph - N/A   Clear
5:56 PM 75.9 °F - 57.0 °F 52% 29.87 in 10.0 mi NNW 10.4 mph - N/A   Clear
6:56 PM 72.0 °F - 57.9 °F 61% 29.87 in 10.0 mi North 5.8 mph - N/A   Clear
7:56 PM 69.1 °F - 57.9 °F 68% 29.88 in 10.0 mi NNW 4.6 mph - N/A   Clear
8:56 PM 64.9 °F - 57.0 °F 75% 29.90 in 10.0 mi NNW 5.8 mph - N/A   Clear
9:56 PM 64.0 °F - 55.0 °F 73% 29.91 in 10.0 mi NNW 6.9 mph - N/A   Clear
10:56 PM 63.0 °F - 54.0 °F 72% 29.93 in 10.0 mi North 6.9 mph - N/A   Clear
11:56 PM 60.1 °F - 52.0 °F 75% 29.92 in 10.0 mi North 6.9 mph - N/A   Clear